Weather in Gay

Russia / Orenburg Oblast     51°27′54″N   58°26′37″E
temp.,
°C
wind,
m/s
gust,
m/s
humid.,
%
clouds,
%
prec.,
mm/h
press.,
hPa
HPBL,
m
31 july, sat
sat3123:00+25wsw5113657 0.0 1009264
02:00+21wsw494118 0.0 1009139
05:00+21w22475 0.0 101021
08:00+25w364453 0.0 1010234
11:00+31w58327 0.0 10102048
14:00+33wsw5725100 0.0 10093456
17:00+31wnw563076 0.1 1010968
20:00+28w123482 0.1 101012
1 august, sun
sun123:00+25ssw3341100 0.1 101136
02:00+25wsw383632 0.0 1011127
05:00+22w34409 0.0 101150
08:00+26wnw233844 0.0 1012164
11:00+31w573110 0.0 10121727
14:00+34wnw792662 0.0 10113475
17:00+33w7826100 0.0 10103048
20:00+30nw483196 0.1 1011213
2 august, mon
mon223:00+24nnw4842100 0.1 1014149
02:00+21nnw34495 0.0 101454
05:00+20nnw33524 0.0 101526
08:00+24nnw34400 0.0 1016201
11:00+30n36285 0.0 10162178
14:00+32n35235 0.0 10143062
17:00+33n45205 0.0 10133427
20:00+30nne332715 0.0 101431
3 august, tue
tue323:00+25nne33322 0.0 101520
02:00+22n22392 0.0 101511
05:00+21n22440 0.0 101511
08:00+25n11380 0.0 1016134
11:00+30nne22274 0.0 1016805
14:00+34n24215 0.0 10143159
17:00+34ene242097 0.0 10133471
20:00+30se122755 0.0 101315
4 august, wed
wed423:00+25nw2241100 0.0 101417
02:00+24wsw224293 0.0 101412
05:00+23nne1143100 0.0 101411
08:00+26se0137100 0.0 1015109
11:00+32ssw222654 0.0 1014769
14:00+35s22195 0.0 10123256
17:00+28wnw71038100 0.4 1013362
20:00+29ene6930100 0.8 1011211